{"data":{"norad_id":51991,"intl_designator":"2022-025AM","name":"STARLINK-3652","alt_names":[],"object_type":"PAYLOAD","status":"ACTIVE","operator":null,"country":"US","launch_date":"2022-03-09","launch_site_code":"AFETR","launch_vehicle":null,"mission":null,"orbit_class":"UNKNOWN","rcs_meters":null,"size_class":null,"mass_kg":null,"dimensions":null,"purposes":["comms"],"wikipedia_slug":null,"has_3d_model":false,"image_url":null,"decayed_at":null,"tle_current":{"epoch":"2026-05-25T01:52:57.666144Z","epoch_age_seconds":62272,"freshness":"FRESH","line1":"1 51991U 22025AM  26145.07844521  .00000169  00000+0  28719-4 0  9991","line2":"2 51991  53.2136  56.1971 0001232  80.8465 279.2666 15.08843636232598","mean_motion":15.08843636,"eccentricity":0.0001232,"inclination_deg":53.2136,"raan_deg":56.1971,"arg_perigee_deg":80.8465,"mean_anomaly_deg":279.2666,"bstar":2.8719e-5,"rev_number":23259,"period_min":95.437324693067,"perigee_km":538.87999369432,"apogee_km":540.58455668373,"semimajor_km":6917.869275189,"source":"CELESTRAK","updated_at":"2026-05-25T13:38:16.997731Z"}}}